Terminal Aerodrome Forecast
Issued by NWS Binghamton, NY

Home | Current Version | Previous Version | Text Only | Print | Product List | Glossary On
Versions: 1 2 3 4 5 6 7 8 9 10 11 12 13 14 15 16 17 18 19 20 21
000
FTUS41 KBGM 210900 AAA
TAFAVP
TAF AMD
KAVP 210900Z 2109/2206 VRB03KT P6SM SCT200 WS020/23035KT
     FM211400 22006KT P6SM SCT120
     FM212100 26008KT P6SM -SHRA OVC025
     FM212300 32008KT P6SM OVC025
     FM220100 34008KT P6SM BKN040=

USA.gov is the U.S. government's official web portal to all federal, state and local government web resources and services.